Showing default

OPTICUBE 04, 41851

Orbit data source: Space-Track

OPTICUBE 04, 41851 is an American payload satellite in SSO that was launched on Fri, 11 Nov 2016 UTC via an ATLAS V 401 launch vehicle from the Air Force Western Test Range (AFWTR). Payload-class satellites include a variety of spacecraft equipped with specific instruments for various scientific and technological missions. These include communications satellites like Starlink; space stations such as the ISS; scientific satellites like the Hubble; Earth observation satellites from companies like Planet Labs, Umbra, and HawkEye 360; GPS; miniature CubeSats for education and research; and military/defense satellites.

Loading next visibility...
Identifier
41851, 2016-067D
Orbit
SSO
Country
Flag of USUS
Related business
Manufacturer
Cal Poly
Mission
Operational Defense Calibration
Bus & Motor
CUBESAT 2U, Unknown motor
Mass
4 kg wet, 4 kg dry
Launch date (UTC)
2016-11-11 (9 years ago)
Launch vehicle
ATLAS V 401
Launch site
Air Force Western Test Range (AFWTR)
Object type
Payload
Rocket body
Debris
Shape & HBR
Box, 0.1 m
Radar Cross Section
0.035 m², Small (<0.1 m²)

Expand to show TLE details & history
Last TLE update: 15 hours ago

TLE from 15 hours ago
0 OPTICUBE 04
1 41851U 16067D   26033.49974513  .00003104  00000-0  20069-3 0  9993
2 41851  98.0819 238.6869 0015026 209.2132 150.8256 15.08949018504855
Epoch: 2026-02-02T11:59Z
TLE epoch observation values (Epoch: 2026-02-02T11:59:37.979Z)
Latitude
-0.00003°
Longitude
-73.91549°
Altitude
551.547 km
Speed
7.581 km/s
True Right ascension
15h 54m 44s
True Declination
0° 00' 00"
Sunlit
Object was in daylight at epoch
Visualization orbit readout
Latitude
Unknown
Longitude
Unknown
Altitude
Unknown
Speed
Unknown
Apparent Right ascension
Unknown
Apparent Declination
Unknown
Sunlit
N/A
Visualization observer readout
Local Sidereal Time
05:05:02
Azimuth
Unknown
Elevation
Unknown
Doppler factor
Unknown
Orbital elements
Apogee altitude
546.811 km
Perigee altitude
526.031 km
Semi-major axis
6,914.558 km
Eccentricity
0.0015
Inclination
98.0819°
RAAN
238.6869°
Arg. of periapsis
209.2132°
True anomaly
150.9094°
Mean anomaly
150.8256°
Eccentric anomaly
150.86751°
Mean motion
3.77482 °/min
Orbital period
95.37 mins
BSTAR
0.00020069
Loading maneuver chart data...
Computing Atmospheric mass density...
Loading historical data...
Loading historical data...
Loading historical data...
Loading historical data...
Loading historical data...
Loading historical data...
Loading historical data...

Documentation

Showing up to 5 results
|